{"data":{"norad_id":66307,"epoch":"2026-09-20T04:48:53.470368Z","epoch_age_seconds":157552,"freshness":"FRESH","line1":"1 66307U 25248Q   26263.20061887  .00010629  00000+0  37065-3 0  9995","line2":"2 66307  45.3912 318.0685 0009853 254.6803 105.2999 15.29832346 49148","mean_motion":15.29832346,"eccentricity":0.0009853,"inclination_deg":45.3912,"raan_deg":318.0685,"arg_perigee_deg":254.6803,"mean_anomaly_deg":105.2999,"bstar":0.00037065,"rev_number":4914,"period_min":94.12796139166,"perigee_km":469.55934821035,"apogee_km":483.06672745491,"semimajor_km":6854.4500378326,"source":"CELESTRAK","updated_at":"2026-09-21T09:00:15.904705Z"}}